{"data":{"norad_id":64126,"epoch":"2026-09-20T22:20:42.243936Z","epoch_age_seconds":103172,"freshness":"FRESH","line1":"1 64126U 25111D   26263.93104449  .00134337  00000+0  10298-2 0  9994","line2":"2 64126  42.9977 237.1673 0000427 202.8686 157.2163 15.70927959 77297","mean_motion":15.70927959,"eccentricity":4.27e-5,"inclination_deg":42.9977,"raan_deg":237.1673,"arg_perigee_deg":202.8686,"mean_anomaly_deg":157.2163,"bstar":0.0010298,"rev_number":7729,"period_min":91.665565677286,"perigee_km":355.95611196064,"apogee_km":356.53122806986,"semimajor_km":6734.3806700153,"source":"CELESTRAK","updated_at":"2026-09-21T09:00:35.232919Z"}}